Location: Moscow
(55.7500°N, 37.5830°E)
Time: 18:06:10
(UTC+03:00)

A-11 Canister half - Pass Details

Date: 08 December 2021
Orbit: 1516 x 1684 km, 47.2° (Epoch: 19 January)

Event Time Altitude Azimuth Distance (km) Brightness Sun altitude
Rises 04:45:15 0° 182° (S) 4,723 11.5 -32.1°
Reaches altitude 10° 04:49:51 10° 163° (SSE) 3,775 11.1 -31.4°
Maximum altitude 04:55:03 16° 129° (SE) 3,350 11.2 -30.7°
Drops below altitude 10° 05:00:19 10° 96° (E) 3,858 12.0 -30.0°
Sets 05:05:05 0° 77° (ENE) 4,880 12.8 -29.3°
